sat.trackr.live / text

‹ back to catalog

ONEWEB-0170

NORAD 48067 · 2021-025AB

PAYLOAD ACTIVE UNKNOWN

§ Identity

Operator
Country
UK
Launch date
2021-03-25
Launch site
VOSTO
Launch vehicle
Mass (kg)
RCS (m²)

Purposes: comms

External: N2YO · Heavens-Above · Gunter

§ Orbital elements

Epoch: 2026-05-24T23:58:41.329344Z

Period
109.63 min
Inclination
87.8939°
Eccentricity
0.0001660
Mean motion
13.13469074 rev/d
Perigee alt
1,208.5 km
Apogee alt
1,211.0 km
Semi-major
7,587.9 km
B*
-5.1559e-4
RAAN
324.8406°
Arg perigee
76.8225°
Mean anomaly
283.3089°
Rev number
25,050

§ Raw data

ONEWEB-01701 48067U 21025AB  26144.99908946 -.00000176  00000+0 -51559-3 0  99992 48067  87.8939 324.8406 0001660  76.8225 283.3089 13.13469074250504

JSON: /api/v1/satellites/48067 · /tle

For live sub-satellite position, see the globe view (requires WebGL).

§ Visibility from observer

Set your observer location to see the next 7 days of passes ≥ 10°. The values pass through the URL so the page stays shareable.

No JS? Fill the form by hand. The geolocation button needs JavaScript.